Weather History for Washington, NC

Change the Weather History Date:

Tuesday, December 31, 2013

  Actual Average (KEWN) Record (KEWN)
Temperature  
Mean Temperature 44 °F 44 °F  
Max Temperature 52 °F 55 °F 77 °F (1973)
Min Temperature 37 °F 34 °F 17 °F (1993)
Degree Days  
Heating Degree Days 20 21  
Month to date heating degree days 568  
Since 1 July heating degree days 994  
Cooling Degree Days 0 0  
Month to date cooling degree days 3  
Year to date cooling degree days 1903  
Moisture  
Dew Point 35 °F    
Average Humidity 72    
Maximum Humidity 87    
Minimum Humidity 35    
Precipitation  
Precipitation 0.00 in 0.11 in 1.56 in (1952)
Month to date precipitation 3.40  
Year to date precipitation 52.75  
Snow  
Snow 0.00 in - - ()
Month to date snowfall  
Since 1 July snowfall  
Snow Depth -    
Sea Level Pressure  
Sea Level Pressure 30.24 in    
Wind  
Wind Speed 2 mph (NE)    
Max Wind Speed 12 mph    
Max Gust Speed 17 mph    
Visibility 10 miles    
Events      
T = Trace of Precipitation, MM = Missing Value Source: NWS Daily Summary

Daily Weather History Graph

Daily Weather History Graph

Search for Another Location

Airport:

Trip Planner

Search our weather history database for the weather conditions in past years. The results will help you decide how hot, cold, wet, or windy it might be!

Date:

Astronomy

Dec. 31, 2013 Rise Set
Actual Time 7:17 AM EST 5:05 PM EST
Civil Twilight 6:49 AM EST 5:33 PM EST
Nautical Twilight 6:17 AM EST 6:05 PM EST
Astronomical Twilight 5:46 AM EST 6:36 PM EST
Moon 6:09 AM EST (12/31) 4:37 PM EST (12/31)
Length of Visible Light 10h 44m
Length of Day
9h 47m
Waning Crescent, 1% of the Moon is Illuminated
Dec 31
Waning Crescent
Jan 1
New
Jan 7
First Quarter
Jan 15
Full
Jan 24
Last Quarter

Hourly Weather History & Observations

Time (EST) Temp. Windchill Dew Point Humidity Pressure Visibility Wind Dir Wind Speed Gust Speed Precip Events Conditions
12:15 AM 45.7 °F - 41.5 °F 85% 30.11 in 10.0 mi Calm Calm - N/A   Overcast
12:35 AM 45.5 °F - 41.2 °F 85% 30.11 in 10.0 mi Calm Calm - N/A   Overcast
12:55 AM 45.1 °F - 41.0 °F 85% 30.12 in 10.0 mi Calm Calm - N/A   Overcast
1:15 AM 45.1 °F - 41.0 °F 85% 30.11 in 10.0 mi Calm Calm - N/A   Overcast
1:35 AM 45.1 °F - 41.0 °F 85% 30.12 in 10.0 mi Calm Calm - N/A   Scattered Clouds
1:55 AM 44.6 °F - 40.5 °F 85% 30.12 in 10.0 mi Calm Calm - N/A   Clear
2:15 AM 43.9 °F - 40.1 °F 87% 30.13 in 10.0 mi Calm Calm - N/A   Clear
2:35 AM 43.9 °F 42.3 °F 40.1 °F 87% 30.13 in 10.0 mi NE 3.5 mph - N/A   Mostly Cloudy
2:55 AM 43.9 °F 42.3 °F 40.1 °F 87% 30.12 in 10.0 mi ENE 3.5 mph - N/A   Mostly Cloudy
3:15 AM 42.8 °F 41.1 °F 38.8 °F 86% 30.12 in 10.0 mi NE 3.5 mph - N/A   Clear
3:35 AM 42.8 °F - 38.7 °F 85% 30.11 in 10.0 mi Calm Calm - N/A   Scattered Clouds
3:55 AM 42.8 °F - 38.7 °F 85% 30.11 in 10.0 mi Calm Calm - N/A   Clear
4:15 AM 42.8 °F - 38.7 °F 85% 30.13 in 10.0 mi Calm Calm - N/A   Mostly Cloudy
4:35 AM 42.8 °F - 38.7 °F 85% 30.11 in 10.0 mi Calm Calm - N/A   Overcast
4:55 AM 42.8 °F - 38.7 °F 85% 30.11 in 10.0 mi Calm Calm - N/A   Overcast
5:15 AM 42.8 °F 41.1 °F 38.7 °F 85% 30.11 in 10.0 mi North 3.5 mph - N/A   Overcast
5:35 AM 42.8 °F 41.1 °F 38.7 °F 85% 30.14 in 10.0 mi NE 3.5 mph - N/A   Overcast
5:55 AM 42.8 °F 40.1 °F 38.7 °F 85% 30.14 in 10.0 mi NNE 4.6 mph - N/A   Overcast
6:15 AM 42.8 °F 38.0 °F 38.7 °F 85% 30.16 in 10.0 mi NNE 8.1 mph - N/A   Overcast
6:35 AM 42.8 °F 37.0 °F 38.7 °F 85% 30.18 in 10.0 mi North 10.4 mph - N/A   Overcast
6:55 AM 42.8 °F 37.5 °F 38.7 °F 85% 30.20 in 7.0 mi NNE 9.2 mph - N/A   Overcast
7:15 AM 40.6 °F 34.3 °F 36.7 °F 86% 30.22 in 4.0 mi NNE 10.4 mph - N/A   Overcast
7:35 AM 40.1 °F 35.3 °F 36.1 °F 86% 30.22 in 4.0 mi North 6.9 mph - N/A   Overcast
7:55 AM 40.1 °F 36.9 °F 36.1 °F 86% 30.22 in 10.0 mi North 4.6 mph - N/A   Overcast
8:15 AM 40.1 °F - 36.1 °F 86% 30.23 in 10.0 mi Calm Calm - N/A   Overcast
8:35 AM 40.1 °F - 36.1 °F 86% 30.22 in 10.0 mi Calm Calm - N/A   Overcast
8:55 AM 40.1 °F - 36.1 °F 86% 30.23 in 10.0 mi Calm Calm - N/A   Overcast
9:15 AM 40.1 °F - 36.1 °F 86% 30.25 in 10.0 mi Calm Calm - N/A   Overcast
9:35 AM 40.1 °F - 36.1 °F 86% 30.25 in 10.0 mi Calm Calm - N/A   Overcast
9:55 AM 40.8 °F - 36.9 °F 86% 30.26 in 10.0 mi Calm Calm - N/A   Overcast
10:15 AM 42.8 °F - 38.7 °F 85% 30.27 in 10.0 mi Calm Calm - N/A   Overcast
10:35 AM 43.2 °F - 39.0 °F 85% 30.27 in 10.0 mi Calm Calm - N/A   Scattered Clouds
10:55 AM 45.0 °F 43.5 °F 40.6 °F 85% 30.26 in 10.0 mi East 3.5 mph - N/A   Clear
11:15 AM 46.4 °F 45.2 °F 40.3 °F 79% 30.26 in 10.0 mi East 3.5 mph - N/A   Clear
11:35 AM 48.4 °F - 37.8 °F 67% 30.26 in 10.0 mi ENE 5.8 mph - N/A   Clear
11:55 AM 50.2 °F - 37.4 °F 62% 30.25 in 10.0 mi ENE 6.9 mph - N/A   Clear
12:15 PM 52.0 °F - 36.3 °F 55% 30.26 in 10.0 mi NE 10.4 mph - N/A   Clear
12:35 PM 52.7 °F - 34.9 °F 51% 30.25 in 10.0 mi NE 11.5 mph 16.1 mph N/A   Clear
12:55 PM 52.7 °F - 34.2 °F 49% 30.24 in 10.0 mi ENE 8.1 mph - N/A   Clear
1:15 PM 52.7 °F - 32.4 °F 46% 30.22 in 10.0 mi ENE 6.9 mph - N/A   Clear
1:35 PM 52.7 °F - 29.1 °F 40% 30.22 in 10.0 mi East 10.4 mph - N/A   Clear
1:55 PM 52.7 °F - 26.4 °F 36% 30.23 in 10.0 mi East 9.2 mph 17.3 mph N/A   Clear
2:15 PM 52.7 °F - 25.7 °F 35% 30.24 in 10.0 mi NE 6.9 mph - N/A   Clear
2:35 PM 52.7 °F - 27.5 °F 38% 30.23 in 10.0 mi ENE 6.9 mph - N/A   Clear
2:55 PM 52.7 °F - 25.9 °F 35% 30.23 in 10.0 mi ENE 8.1 mph - N/A   Clear
3:15 PM 52.7 °F - 26.1 °F 36% 30.24 in 10.0 mi ENE 5.8 mph - N/A   Clear
3:35 PM 52.7 °F - 25.3 °F 35% 30.24 in 10.0 mi ENE 8.1 mph - N/A   Clear
3:55 PM 52.7 °F - 27.7 °F 38% 30.25 in 10.0 mi ENE 5.8 mph - N/A   Clear
4:15 PM 52.7 °F - 28.4 °F 39% 30.26 in 10.0 mi ENE 6.9 mph - N/A   Clear
4:35 PM 50.2 °F - 26.8 °F 40% 30.26 in 10.0 mi NE 3.5 mph - N/A   Clear
4:55 PM 48.2 °F - 24.6 °F 40% 30.27 in 10.0 mi ENE 4.6 mph - N/A   Clear
5:15 PM 46.9 °F - 24.8 °F 42% 30.27 in 10.0 mi ESE 3.5 mph - N/A   Clear
5:35 PM 46.4 °F - 24.8 °F 43% 30.28 in 10.0 mi Calm Calm - N/A   Clear
5:55 PM 45.1 °F - 28.4 °F 52% 30.29 in 10.0 mi Calm Calm - N/A   Clear
6:15 PM 43.3 °F - 30.6 °F 61% 30.29 in 10.0 mi Calm Calm - N/A   Clear
6:35 PM 42.8 °F - 32.7 °F 68% 30.29 in 10.0 mi Calm Calm - N/A   Clear
6:55 PM 40.6 °F - 32.2 °F 72% 30.30 in 10.0 mi Calm Calm - N/A   Clear
7:15 PM 40.5 °F - 32.5 °F 73% 30.32 in 10.0 mi Calm Calm - N/A   Clear
7:35 PM 40.1 °F - 34.3 °F 80% 30.33 in 10.0 mi Calm Calm - N/A   Clear
7:55 PM 40.1 °F - 33.1 °F 76% 30.34 in 10.0 mi Calm Calm - N/A   Clear
8:15 PM 40.1 °F - 34.2 °F 79% 30.35 in 10.0 mi Calm Calm - N/A   Clear
8:35 PM 39.2 °F - 34.0 °F 82% 30.36 in 10.0 mi Calm Calm - N/A   Clear
8:55 PM 39.6 °F - 34.3 °F 82% 30.36 in 10.0 mi Calm Calm - N/A   Clear
9:15 PM 39.6 °F - 34.2 °F 81% 30.36 in 10.0 mi Calm Calm - N/A   Clear
9:35 PM 37.6 °F - 32.9 °F 83% 30.36 in 10.0 mi Calm Calm - N/A   Clear
9:55 PM 37.6 °F - 32.4 °F 81% 30.36 in 10.0 mi Calm Calm - N/A   Clear
10:15 PM 37.6 °F - 32.9 °F 83% 30.36 in 10.0 mi Calm Calm - N/A   Clear
10:35 PM 37.6 °F - 32.9 °F 83% 30.37 in 10.0 mi Calm Calm - N/A   Clear
10:55 PM 37.6 °F - 33.1 °F 84% 30.36 in 10.0 mi Calm Calm - N/A   Clear
11:15 PM 37.6 °F - 32.9 °F 83% 30.36 in 10.0 mi Calm Calm - N/A   Clear
11:35 PM 37.6 °F - 33.1 °F 84% 30.36 in 10.0 mi Calm Calm - N/A   Clear
11:55 PM 37.6 °F - 33.4 °F 85% 30.36 in 10.0 mi Calm Calm - N/A   Clear